CAPE
500 874 2360 2182 1953 1850 1512 1009 1067 882 758 677 545 657 563 757 730 722 785 778 1282 1435 968 907 822 918 785 617 857 611 517 565 533 632 884 918 764 438 387 308 185 7 13
473 835 1952 2320 2289 2065 1698 1323 1271 998 809 759 531 440 513 514 388 430 637 582 631 775 848 865 883 747 614 521 658 591 473 454 408 395 330 335 451 459 318 243 351 24 13
1021 973 1670 2149 1825 1980 1910 1461 1385 1127 1012 888 807 374 448 442 520 384 751 950 1207 841 667 724 780 565 542 480 474 458 381 328 218 161 96 130 224 368 245 219 304 35 15
992 832 497 1385 1693 1612 1794 1609 1494 1256 1169 1033 926 989 973 502 331 570 1118 1190 1092 1230 1051 1110 741 867 821 700 677 430 324 219 79 12 41 57 105 227 42 20 35 35 15
533 776 843 471 1321 1354 1527 1683 1604 1452 1298 1119 1017 1024 1149 1084 956 633 1313 1071 859 1130 1062 1037 893 874 844 757 626 335 236 77 2 0 0 14 47 117 32 25 15 13 16
617 789 738 684 537 541 1270 1480 1718 1610 1456 1214 1111 994 1106 1146 969 1243 1090 934 944 1138 1122 1049 647 719 847 795 612 173 65 2 0 0 0 21 20 63 18 28 41 14 39
274 615 770 653 529 510 508 525 1452 1696 1559 1370 1249 1121 1106 1144 921 1123 916 810 904 1022 1165 992 851 599 679 648 419 59 11 0 0 0 1 23 31 40 28 18 45 19 11
61 273 696 705 529 573 411 409 379 1370 1406 1423 1343 1268 1168 1153 1096 723 715 696 816 1003 976 817 753 653 464 460 145 19 7 0 0 0 0 20 157 53 18 8 47 22 13
0 44 419 613 603 498 317 307 337 270 553 990 1151 1130 977 880 853 611 508 520 624 907 792 625 632 662 565 220 45 21 7 0 0 0 0 0 64 46 22 12 36 11 21
0 0 125 589 510 488 286 186 267 295 229 228 656 711 627 574 455 374 270 273 583 679 656 531 610 562 324 133 27 14 0 0 0 0 0 10 37 21 22 14 20 16 17
0 0 0 130 470 336 323 253 372 329 247 228 371 632 570 358 392 187 161 193 324 531 580 615 471 301 65 28 25 5 0 0 0 0 7 43 31 24 20 11 13 18 46
0 0 0 5 15 191 297 408 409 395 318 202 206 419 387 268 241 169 117 171 172 268 377 544 387 50 19 14 7 6 0 0 0 0 21 56 46 50 23 59 30 10 42
0 0 0 2 7 174 164 304 326 305 371 237 90 308 447 296 230 110 59 77 89 175 177 214 79 27 13 6 4 7 0 0 0 0 38 46 32 23 35 17 21 11 19
0 0 0 0 6 81 95 366 333 183 320 234 38 174 369 357 167 93 52 57 25 73 103 63 39 31 18 5 0 3 0 0 0 7 15 34 38 23 27 13 16 14 28
0 0 0 0 1 5 15 4 180 281 109 204 174 76 262 268 286 232 260 80 1 1 49 18 30 42 25 6 9 4 0 0 0 0 6 28 45 13 20 24 27 49 33
0 0 0 0 0 2 12 13 86 175 230 140 75 45 184 254 290 248 232 83 0 0 5 0 35 39 35 9 9 8 2 1 0 0 2 19 37 45 43 24 12 35 32
0 0 0 0 0 0 3 11 16 21 102 165 175 109 98 194 268 256 236 43 0 0 0 9 45 41 44 13 2 8 3 3 0 0 18 28 15 30 37 38 38 48 47
0 0 0 0 0 0 3 5 6 15 61 58 138 96 92 102 210 215 113 117 21 0 0 15 35 38 39 31 13 11 4 20 30 24 32 25 20 14 28 20 31 43 37
0 0 0 0 0 0 0 1 3 7 4 16 54 35 119 142 140 210 130 62 6 0 0 13 34 36 43 54 26 11 8 20 14 21 23 6 11 0 0 2 24 34 44
0 0 0 0 0 0 0 0 10 12 3 28 80 188 163 103 139 157 148 95 3 0 0 5 32 40 45 37 37 34 14 4 25 40 34 11 2 0 0 0 2 5 28
0 0 0 0 0 0 0 0 2 9 0 4 41 101 28 79 63 158 159 98 14 1 0 0 14 35 59 41 33 22 8 3 7 40 5 3 3 0 0 0 1 5 20
0 0 0 0 0 0 0 0 0 0 6 0 3 1 21 46 78 157 195 146 48 33 0 0 0 25 56 61 16 9 15 22 25 1 8 1 2 0 0 0 0 3 4
0 0 0 0 0 0 0 0 0 0 11 9 0 0 31 18 94 131 143 155 78 54 1 0 0 0 1 16 8 0 3 4 7 0 4 2 0 0 0 0 0 0 3
0 0 0 0 0 0 0 0 0 2 1 11 0 0 13 48 39 118 146 135 39 53 5 1 0 0 0 5 1 6 0 0 0 0 0 7 2 1 0 0 7 0 0
0 0 0 0 0 0 0 0 0 0 0 0 0 0 4 16 14 39 51 115 67 31 4 0 0 0 0 0 1 2 3 0 0 0 0 0 1 1 0 0 3 3 1
0 0 0 0 0 0 0 0 0 0 0 0 0 0 0 12 11 3 26 29 49 24 1 9 1 0 0 0 0 2 1 0 0 0 0 0 0 0 0 0 2 1 5
CIN
-61 -11 -0 -0 -0 -0 -0 -47 -26 -43 -37 -41 -66 -41 -26 -8 -35 -32 -16 -9 -0 -0 -0 -2 -12 -7 -21 -42 -15 -38 -44 -29 -12 -1 -0 -0 -0 -13 -22 -25 -42 -2 -128
-53 -22 -1 -1 -0 -0 -0 -0 -3 -31 -40 -41 -54 -82 -54 -57 -71 -91 -47 -42 -27 -5 -0 -3 -6 -22 -41 -65 -49 -51 -63 -54 -41 -24 -25 -26 -19 -19 -29 -47 -14 -96 -0
-19 -0 -4 -4 -3 -0 -0 -0 -0 -3 -9 -11 -21 -62 -69 -76 -61 -105 -57 -15 -5 -16 -19 -6 -16 -55 -56 -80 -89 -88 -101 -102 -120 -113 -137 -107 -75 -30 -57 -64 -28 -0 -0
-5 -1 -0 -6 -8 -3 -0 -0 -0 -0 -0 -0 -0 -0 -2 -42 -99 -49 -16 -13 -19 -10 -0 -0 -23 -26 -27 -31 -43 -103 -130 -165 -234 -56 -220 -170 -150 -72 -202 -0 -0 -0 -0
-4 -1 -0 -1 -3 -8 -1 -0 -0 -0 -0 -0 -0 -0 -0 -1 -16 -37 -0 -9 -25 -20 -7 -10 -17 -20 -37 -36 -56 -133 -186 -287 -12 -0 -0 -5 -214 -153 -28 -0 -0 -0 -0
-17 -0 -2 -0 -0 -0 -5 -4 -0 -0 -0 -0 -2 -0 -0 -0 -1 -0 -2 -15 -17 -6 -0 -13 -36 -26 -30 -35 -55 -205 -326 -130 -0 -0 -0 -8 -1 -149 -0 -0 -1 -0 -0
-46 -0 -0 -0 -0 -1 -4 -0 -1 -0 -0 -1 -0 -0 -0 -0 -0 -0 -11 -15 -26 -15 -6 -16 -24 -42 -53 -70 -96 -263 -27 -0 -0 -0 -4 -0 -1 -0 -0 -0 -0 -0 -0
-94 -39 -0 -0 -0 -0 -4 -12 -2 -0 -0 -0 -0 -0 -0 -0 -0 -3 -10 -28 -28 -18 -13 -24 -31 -44 -86 -100 -210 -31 -60 -0 -0 -0 -0 -21 -180 -0 -0 -0 -1 -0 -0
-0 -96 -11 -0 -0 -0 -20 -22 -3 -0 -0 -1 -0 -0 -0 -1 -0 -0 -17 -43 -16 -2 -15 -32 -34 -36 -72 -178 -96 -49 -85 -0 -0 -0 -0 -0 -7 -0 -0 -0 -0 -0 -0
-0 -0 -50 -0 -0 -6 -16 -46 -25 -2 -0 -0 -2 -0 -0 -1 -2 -5 -33 -62 -8 -0 -11 -33 -19 -33 -125 -215 -66 -91 -0 -0 -0 -0 -0 -14 -2 -1 -0 -1 -0 -0 -1
-0 -0 -0 -38 -0 -0 -1 -21 -8 -9 -1 -0 -2 -1 -1 -11 -5 -41 -87 -75 -27 -0 -0 -11 -35 -86 -123 -83 -87 -95 -0 -0 -0 -0 -15 -6 -4 -1 -0 -0 -0 -2 -3
-0 -0 -0 -7 -11 -9 -0 -0 -0 -2 -0 -0 -0 -4 -5 -7 -13 -11 -72 -68 -60 -14 -0 -0 -38 -118 -24 -17 -36 -77 -0 -0 -0 -0 -10 -1 -0 -0 -0 -0 -0 -0 -6
-0 -0 -0 -0 -3 -4 -11 -1 -1 -3 -0 -0 -20 -1 -0 -10 -6 -18 -96 -117 -152 -60 -61 -51 -236 -15 -4 -0 -51 -58 -0 -0 -0 -0 -6 -0 -2 -0 -0 -1 -1 -0 -2
-0 -0 -0 -0 -0 -10 -10 -0 -0 -8 -0 -0 -11 -0 -1 -0 -0 -3 -58 -107 -6 -161 -141 -214 -42 -12 -5 -0 -0 -0 -0 -0 -0 -10 -22 -17 -1 -2 -0 -0 -0 -0 -1
-0 -0 -0 -0 -0 -0 -0 -0 -0 -0 -1 -0 -0 -0 -4 -0 -0 -0 -0 -27 -0 -0 -41 -5 -14 -14 -13 -0 -12 -0 -0 -0 -0 -0 -9 -17 -12 -0 -0 -0 -0 -1 -0
-0 -0 -0 -0 -0 -0 -0 -0 -0 -0 -0 -0 -1 -0 -9 -0 -0 -0 -0 -19 -0 -0 -0 -0 -22 -12 -18 -0 -10 -0 -1 -0 -0 -0 -2 -17 -16 -4 -1 -0 -2 -0 -0
-0 -0 -0 -0 -0 -0 -0 -0 -0 -0 -1 -0 -0 -17 -3 -0 -0 -0 -0 -30 -1 -0 -0 -2 -14 -22 -11 -0 -0 -0 -0 -0 -0 -0 -25 -30 -22 -18 -3 -2 -1 -0 -0
-0 -0 -0 -0 -0 -0 -0 -0 -0 -0 -0 -0 -0 -4 -0 -1 -0 -0 -0 -0 -7 -0 -0 -6 -18 -16 -19 -14 -0 -0 -0 -43 -33 -30 -27 -24 -9 -4 -9 -4 -3 -0 -0
-0 -0 -0 -0 -0 -0 -0 -0 -0 -0 -0 -19 -2 -33 -0 -2 -5 -0 -0 -2 -3 -0 -0 -12 -18 -33 -26 -3 -9 -0 -0 -16 -12 -26 -14 -0 -3 -0 -0 -7 -17 -4 -0
-0 -0 -0 -0 -0 -0 -0 -0 -0 -0 -0 -10 -5 -0 -0 -0 -2 -0 -0 -2 -3 -0 -0 -41 -15 -31 -26 -14 -20 -35 -0 -0 -19 -8 -4 -0 -0 -0 -0 -0 -0 -0 -5
-0 -0 -0 -0 -0 -0 -0 -0 -0 -0 -0 -2 -2 -2 -3 -0 -2 -0 -0 -0 -1 -1 -0 -0 -11 -19 -14 -27 -12 -4 -0 -0 -0 -1 -0 -0 -0 -0 -0 -0 -0 -0 -2
-0 -0 -0 -0 -0 -0 -0 -0 -0 -8 -2 -0 -5 -14 -2 -0 -0 -0 -0 -0 -1 -0 -0 -0 -0 -9 -3 -1 -1 -2 -0 -0 -0 -0 -0 -0 -0 -0 -0 -0 -0 -0 -0
-0 -0 -0 -0 -0 -0 -0 -0 -0 -0 -12 -6 -0 -0 -11 -6 -0 -0 -0 -0 -0 -9 -0 -0 -0 -0 -12 -6 -0 -0 -1 -2 -0 -0 -0 -0 -0 -0 -0 -0 -0 -0 -0
-0 -0 -0 -0 -0 -0 -0 -0 -0 -1 -0 -2 -0 -0 -4 -13 -3 -0 -0 -6 -10 -3 -4 -0 -0 -0 -0 -10 -1 -0 -0 -0 -0 -0 -0 -0 -0 -0 -0 -0 -10 -11 -0
-0 -0 -0 -0 -0 -0 -0 -0 -0 -0 -0 -0 -0 -0 -51 -0 -0 -0 -0 -14 -0 -2 -116 -0 -0 -0 -0 -0 -0 -0 -0 -0 -0 -0 -0 -0 -0 -0 -0 -0 -0 -3 -0
-0 -0 -0 -0 -0 -0 -0 -0 -0 -0 -0 -0 -0 -0 -0 -1 -0 -0 -0 -0 -0 -0 -17 -9 -0 -0 -0 -0 -0 -0 -0 -0 -0 -0 -0 -0 -0 -0 -0 -0 -0 -0 -0
Wind_Speed
28 20 20 18 18 21 25 25 24 25 23 21 20 20 20 17 21 19 18 17 16 15 13 14 13 12 13 14 13 14 14 13 13 10 9 8 9 12 11 11 9 nan nan
36 16 18 20 21 21 25 26 25 26 25 24 20 20 19 20 19 22 18 19 18 15 12 14 12 13 14 15 16 18 18 15 13 10 7 8 10 12 13 12 12 nan nan
46 40 20 24 22 24 25 28 27 27 25 26 23 19 19 20 19 21 21 20 20 17 14 13 14 14 17 17 17 18 19 17 13 10 nan 6 8 14 14 12 12 nan nan
47 45 48 21 23 26 28 29 28 29 25 26 25 21 20 18 21 20 23 22 21 23 17 17 14 15 17 17 19 19 19 17 nan nan nan nan 8 14 nan nan nan nan nan
54 51 55 68 24 26 29 31 30 30 26 24 25 23 20 19 19 18 21 22 20 27 22 23 17 14 15 18 19 19 21 nan nan nan nan nan nan 13 nan nan nan nan nan
55 55 55 67 66 69 28 32 29 32 27 26 22 24 21 20 17 18 20 21 23 26 25 26 18 14 16 18 19 20 nan nan nan nan nan nan nan nan nan nan nan nan nan
53 53 54 63 61 67 59 58 30 30 29 27 26 22 23 19 20 17 19 21 25 27 26 27 24 20 17 19 19 nan nan nan nan nan nan nan nan nan nan nan nan nan nan
nan 53 55 62 63 63 65 65 64 29 29 27 26 24 23 21 21 22 21 23 24 28 28 30 26 24 17 18 20 nan nan nan nan nan nan nan 12 nan nan nan nan nan nan
nan nan 53 57 59 61 60 60 64 61 40 30 29 26 24 23 25 23 24 26 25 27 31 31 26 25 20 18 nan nan nan nan nan nan nan nan nan nan nan nan nan nan nan
nan nan 56 56 56 57 57 61 63 62 57 51 32 31 30 29 29 24 26 26 27 28 32 31 26 26 26 20 nan nan nan nan nan nan nan nan nan nan nan nan nan nan nan
nan nan nan 59 58 59 59 59 58 60 61 60 36 39 39 36 33 31 31 29 30 29 31 30 29 28 nan nan nan nan nan nan nan nan nan nan nan nan nan nan nan nan nan
nan nan nan nan nan 61 60 61 57 52 50 52 56 44 45 42 39 35 35 34 33 31 32 30 31 nan nan nan nan nan nan nan nan nan nan nan nan nan nan nan nan nan nan
nan nan nan nan nan 63 62 61 59 59 55 51 nan 50 52 49 44 43 nan nan nan 35 33 34 nan nan nan nan nan nan nan nan nan nan nan nan nan nan nan nan nan nan nan
nan nan nan nan nan nan nan 63 63 62 59 58 nan 47 59 49 45 nan nan nan nan nan 32 nan nan nan nan nan nan nan nan nan nan nan nan nan nan nan nan nan nan nan nan
nan nan nan nan nan nan nan nan 66 65 63 58 58 nan 52 56 49 46 44 nan nan nan nan nan nan nan nan nan nan nan nan nan nan nan nan nan nan nan nan nan nan nan nan
nan nan nan nan nan nan nan nan nan 67 65 64 nan nan 35 59 54 47 45 nan nan nan nan nan nan nan nan nan nan nan nan nan nan nan nan nan nan nan nan nan nan nan nan
nan nan nan nan nan nan nan nan nan nan 70 66 63 60 nan 62 55 49 46 nan nan nan nan nan nan nan nan nan nan nan nan nan nan nan nan nan nan nan nan nan nan nan nan
nan nan nan nan nan nan nan nan nan nan nan nan 67 nan nan 49 54 53 49 48 nan nan nan nan nan nan nan nan nan nan nan nan nan nan nan nan nan nan nan nan nan nan nan
nan nan nan nan nan nan nan nan nan nan nan nan nan nan 55 38 59 54 50 nan nan nan nan nan nan nan nan nan nan nan nan nan nan nan nan nan nan nan nan nan nan nan nan
nan nan nan nan nan nan nan nan nan nan nan nan nan 68 63 44 49 54 52 nan nan nan nan nan nan nan nan nan nan nan nan nan nan nan nan nan nan nan nan nan nan nan nan
nan nan nan nan nan nan nan nan nan nan nan nan nan 65 nan nan nan 57 56 nan nan nan nan nan nan nan nan nan nan nan nan nan nan nan nan nan nan nan nan nan nan nan nan
nan nan nan nan nan nan nan nan nan nan nan nan nan nan nan nan nan 61 55 55 nan nan nan nan nan nan nan nan nan nan nan nan nan nan nan nan nan nan nan nan nan nan nan
nan nan nan nan nan nan nan nan nan nan nan nan nan nan nan nan nan 56 57 55 nan nan nan nan nan nan nan nan nan nan nan nan nan nan nan nan nan nan nan nan nan nan nan
nan nan nan nan nan nan nan nan nan nan nan nan nan nan nan nan nan 52 59 54 nan nan nan nan nan nan nan nan nan nan nan nan nan nan nan nan nan nan nan nan nan nan nan
nan nan nan nan nan nan nan nan nan nan nan nan nan nan nan nan nan nan nan 55 nan nan nan nan nan nan nan nan nan nan nan nan nan nan nan nan nan nan nan nan nan nan nan
nan nan nan nan nan nan nan nan nan nan nan nan nan nan nan nan nan nan nan nan nan nan nan nan nan nan nan nan nan nan nan nan nan nan nan nan nan nan nan nan nan nan nan
Wind_Direction
202 200 255 256 259 265 272 274 270 274 273 270 279 285 284 282 287 281 269 259 256 263 286 294 285 264 255 252 248 268 273 276 288 288 277 291 297 304 304 299 306 nan nan
200 212 251 251 255 256 259 258 263 267 270 271 269 282 290 290 290 290 278 267 261 253 262 291 284 266 260 257 261 267 276 281 292 294 282 298 298 307 299 301 302 nan nan
208 199 224 254 247 254 251 256 257 259 264 268 266 273 283 287 287 289 283 271 267 264 264 277 284 272 268 268 269 275 277 285 292 298 nan 349 321 304 294 291 297 nan nan
217 212 209 213 251 251 251 250 249 256 258 259 264 262 268 275 278 280 282 279 278 269 259 266 281 273 269 268 269 274 279 282 nan nan nan nan 338 299 nan nan nan nan nan
225 221 216 210 206 243 250 248 250 253 254 256 263 266 264 267 274 276 279 276 271 268 266 266 266 275 270 265 269 275 280 nan nan nan nan nan nan 302 nan nan nan nan nan
223 226 221 219 212 210 219 245 242 250 254 253 248 258 257 261 265 274 273 279 265 265 265 264 269 266 266 266 270 276 nan nan nan nan nan nan nan nan nan nan nan nan nan
227 226 225 217 219 211 210 201 240 243 251 255 254 248 253 252 263 271 276 277 271 267 265 262 263 266 269 273 273 nan nan nan nan nan nan nan nan nan nan nan nan nan nan
nan 226 224 219 217 216 212 206 204 232 244 251 258 261 262 254 256 263 271 271 271 269 264 260 262 261 264 266 268 nan nan nan nan nan nan nan 300 nan nan nan nan nan nan
nan nan 225 223 217 219 218 211 205 200 208 240 247 247 248 249 250 256 259 262 265 267 263 258 256 257 260 258 nan nan nan nan nan nan nan nan nan nan nan nan nan nan nan
nan nan 226 223 222 220 226 219 206 202 196 201 237 234 233 234 247 250 248 252 258 258 256 255 253 251 253 251 nan nan nan nan nan nan nan nan nan nan nan nan nan nan nan
nan nan nan 224 220 220 220 228 218 206 201 198 222 233 228 225 230 236 239 241 246 250 250 249 250 249 nan nan nan nan nan nan nan nan nan nan nan nan nan nan nan nan nan
nan nan nan nan nan 219 222 223 229 225 218 210 207 233 227 225 222 225 229 239 244 249 246 240 245 nan nan nan nan nan nan nan nan nan nan nan nan nan nan nan nan nan nan
nan nan nan nan nan 222 224 224 229 230 229 218 nan 228 221 222 219 217 nan nan nan 228 233 233 nan nan nan nan nan nan nan nan nan nan nan nan nan nan nan nan nan nan nan
nan nan nan nan nan nan nan 227 225 226 227 227 nan 248 225 216 222 nan nan nan nan nan 228 nan nan nan nan nan nan nan nan nan nan nan nan nan nan nan nan nan nan nan nan
nan nan nan nan nan nan nan nan 224 224 226 222 228 nan 245 213 219 221 222 nan nan nan nan nan nan nan nan nan nan nan nan nan nan nan nan nan nan nan nan nan nan nan nan
nan nan nan nan nan nan nan nan nan 222 223 224 nan nan 244 210 213 216 220 nan nan nan nan nan nan nan nan nan nan nan nan nan nan nan nan nan nan nan nan nan nan nan nan
nan nan nan nan nan nan nan nan nan nan 221 224 221 211 nan 232 209 216 214 nan nan nan nan nan nan nan nan nan nan nan nan nan nan nan nan nan nan nan nan nan nan nan nan
nan nan nan nan nan nan nan nan nan nan nan nan 223 nan nan 241 210 213 212 217 nan nan nan nan nan nan nan nan nan nan nan nan nan nan nan nan nan nan nan nan nan nan nan
nan nan nan nan nan nan nan nan nan nan nan nan nan nan 214 231 214 211 211 nan nan nan nan nan nan nan nan nan nan nan nan nan nan nan nan nan nan nan nan nan nan nan nan
nan nan nan nan nan nan nan nan nan nan nan nan nan 219 228 234 219 214 213 nan nan nan nan nan nan nan nan nan nan nan nan nan nan nan nan nan nan nan nan nan nan nan nan
nan nan nan nan nan nan nan nan nan nan nan nan nan 213 nan nan nan 213 213 nan nan nan nan nan nan nan nan nan nan nan nan nan nan nan nan nan nan nan nan nan nan nan nan
nan nan nan nan nan nan nan nan nan nan nan nan nan nan nan nan nan 217 215 217 nan nan nan nan nan nan nan nan nan nan nan nan nan nan nan nan nan nan nan nan nan nan nan
nan nan nan nan nan nan nan nan nan nan nan nan nan nan nan nan nan 218 215 219 nan nan nan nan nan nan nan nan nan nan nan nan nan nan nan nan nan nan nan nan nan nan nan
nan nan nan nan nan nan nan nan nan nan nan nan nan nan nan nan nan 222 218 219 nan nan nan nan nan nan nan nan nan nan nan nan nan nan nan nan nan nan nan nan nan nan nan
nan nan nan nan nan nan nan nan nan nan nan nan nan nan nan nan nan nan nan 216 nan nan nan nan nan nan nan nan nan nan nan nan nan nan nan nan nan nan nan nan nan nan nan
nan nan nan nan nan nan nan nan nan nan nan nan nan nan nan nan nan nan nan nan nan nan nan nan nan nan nan nan nan nan nan nan nan nan nan nan nan nan nan nan nan nan nan